PBO Station Position Time Series. Reference Frame : NAM14
Format Version,1.1.1
4-character ID,SDHL
Station name,SDHL_SCGN_CS2001
Begin Date, 2001-12-19
End Date, 2023-06-26
Release Date, 2023-06-27
Reference position, 34.2550110273 North Latitude, -116.2788980971 East Longitude, 835.05804 meters elevation,
Date, North (mm), East (mm), Vertical (mm), North Std. Deviation (mm), East Std. Deviation (mm),              Vertical Std. Deviation (mm), Quality,
2001-12-19,0.00, 0.00, 0.00, 2.09, 1.78, 8.12, repro,
2001-12-20,1.21, -2.24, 0.88, 2.07, 1.75, 7.97, repro,
2001-12-21,-1.39, -2.63, -2.25, 2.03, 1.81, 8.04, repro,
2001-12-22,-0.26, -4.55, 4.09, 2.09, 1.81, 8.15, repro,
2001-12-23,-0.65, -3.28, -5.59, 2.09, 1.83, 8.05, repro,
2001-12-24,-1.76, -0.92, -8.21, 2.17, 1.82, 8.37, repro,
2001-12-25,-0.84, -1.38, -2.50, 2.10, 1.80, 8.19, repro,
2001-12-26,-1.07, -1.68, -2.26, 2.00, 1.73, 7.76, repro,
2001-12-27,-1.97, 0.34, -1.44, 2.14, 1.79, 8.34, repro,
2001-12-28,-1.23, -1.24, 3.23, 2.07, 1.75, 8.04, repro,
2001-12-29,-1.36, -1.52, 1.70, 2.01, 1.73, 7.74, repro,
2001-12-30,-4.07, -7.21, 8.49, 2.41, 2.06, 9.39, repro,
2002-01-23,1.43, -1.93, -9.11, 4.19, 3.84, 15.79, repro,
2002-01-24,0.40, -2.22, 0.57, 2.04, 1.85, 7.82, repro,
2002-01-25,-0.81, -1.77, -0.13, 1.98, 1.78, 7.72, repro,
2002-01-26,-1.07, -1.98, 6.06, 1.95, 1.72, 7.52, repro,
2002-01-27,-1.33, -1.87, -1.14, 1.95, 1.73, 7.52, repro,
2002-01-28,2.94, -1.16, -3.32, 1.99, 1.79, 7.72, repro,
2002-01-29,-1.60, -2.07, -1.56, 2.14, 1.90, 8.37, repro,
2002-01-30,0.05, -2.03, -0.93, 2.07, 1.85, 7.93, repro,
2002-01-31,-0.80, -1.98, -6.34, 2.14, 1.92, 8.53, repro,
2002-02-01,-0.17, -2.29, -5.25, 2.06, 1.89, 7.95, repro,
2002-02-02,0.42, -2.23, 1.45, 2.09, 1.89, 8.13, repro,
2002-02-03,0.67, -1.85, 3.52, 2.06, 1.76, 8.04, repro,
2002-02-04,-0.02, -2.59, 8.05, 2.22, 1.94, 8.60, repro,
2002-02-05,0.06, -2.16, 4.39, 2.17, 2.05, 8.81, repro,
2002-02-06,0.06, -1.49, 7.48, 2.11, 1.92, 8.32, repro,
2002-02-07,-0.39, -1.23, 6.59, 2.09, 1.81, 8.08, repro,
2002-02-08,-1.07, -1.13, 11.20, 2.09, 1.90, 8.27, repro,
2002-02-09,-0.97, -1.97, 7.54, 2.04, 1.80, 8.03, repro,
2002-02-10,0.67, -1.31, 0.02, 2.25, 2.17, 9.02, repro,
2002-02-11,-1.12, -1.09, -6.71, 2.04, 1.81, 8.06, repro,
2002-02-12,-0.27, -1.59, 5.85, 2.19, 2.07, 8.79, repro,
2002-02-13,0.26, -1.59, 7.06, 2.05, 1.84, 8.18, repro,
2002-02-14,-2.10, -0.42, 9.81, 2.28, 2.14, 8.95, repro,
2002-02-15,0.62, -1.42, 9.53, 2.28, 2.13, 9.05, repro,
2002-02-16,-1.11, -2.25, 12.86, 2.16, 1.89, 8.49, repro,
2002-02-17,-2.46, -0.57, 11.85, 2.03, 1.97, 8.21, repro,
2002-02-18,-0.75, -0.77, 6.36, 2.35, 2.32, 9.60, repro,
2002-02-19,-0.94, -1.62, 11.16, 2.14, 1.89, 8.43, repro,
2002-02-20,-1.45, 1.56, 10.96, 2.16, 1.95, 8.50, repro,
2002-02-21,-0.12, -2.70, 5.42, 2.27, 2.00, 8.75, repro,
2002-02-22,-1.34, -1.66, -0.14, 2.15, 1.95, 8.58, repro,
2002-02-23,-0.63, -0.59, 9.53, 2.04, 1.88, 8.08, repro,
2002-02-24,0.52, -0.69, 18.03, 2.26, 2.09, 9.08, repro,
2002-02-25,0.57, -1.25, 16.05, 2.09, 1.91, 8.29, repro,
2002-02-26,-0.25, -1.72, 1.37, 2.19, 2.04, 8.78, repro,
2002-02-27,-1.34, -0.84, 4.27, 2.38, 2.35, 9.80, repro,
2002-02-28,-1.59, -0.55, 16.35, 2.29, 2.07, 8.97, repro,
2002-03-01,-0.07, -0.76, 16.76, 2.09, 1.93, 8.33, repro,
2002-03-02,-0.93, -0.69, 15.76, 2.07, 2.02, 8.15, repro,
2002-03-03,-0.01, -0.72, 3.59, 2.07, 2.00, 8.20, repro,
2002-03-04,-0.81, -1.06, 7.71, 2.04, 1.89, 8.03, repro,
2002-03-05,-1.80, -0.95, 3.79, 2.06, 1.97, 8.13, repro,
2002-03-06,-0.82, -0.92, 4.33, 2.01, 1.85, 7.91, repro,
2002-03-07,-0.46, 1.17, 9.15, 1.97, 1.81, 7.83, repro,
2002-03-08,-1.28, -0.89, 8.12, 1.95, 1.79, 7.73, repro,
2002-03-09,-1.33, -1.63, 4.82, 2.03, 1.89, 7.96, repro,
2002-03-10,-0.68, -1.43, 3.81, 2.02, 1.83, 7.98, repro,
2002-03-11,-1.11, -1.32, 9.92, 2.06, 1.93, 8.14, repro,
2002-03-12,-0.74, -0.88, 10.39, 2.01, 1.84, 7.94, repro,
2002-03-13,-0.16, -0.90, 7.22, 2.02, 1.86, 7.95, repro,
2002-03-19,-0.47, -1.34, 6.45, 2.03, 1.87, 8.02, repro,
2002-03-20,-0.19, -1.24, 5.06, 1.94, 1.77, 7.70, repro,
2002-03-21,-1.02, -1.81, 1.51, 1.98, 1.78, 7.83, repro,
2002-03-22,-1.02, -0.98, 2.15, 2.04, 1.86, 8.09, repro,
2002-03-23,-0.76, -0.11, 9.68, 2.10, 1.89, 8.20, repro,
2002-03-24,-0.29, 0.23, 2.25, 2.08, 1.89, 8.15, repro,
2002-03-25,0.31, -2.00, 3.45, 2.05, 1.83, 8.00, repro,
2002-03-26,-0.25, -0.74, 3.00, 2.01, 1.76, 7.89, repro,
2002-03-27,-0.53, -0.24, 8.86, 2.03, 1.85, 8.03, repro,
2002-03-28,-0.39, -1.63, 10.82, 2.16, 1.98, 8.43, repro,
2002-03-29,-1.60, -0.68, 2.74, 2.03, 1.84, 8.10, repro,
2002-03-30,-0.47, -1.30, 3.05, 2.09, 1.84, 8.27, repro,
2002-03-31,0.62, -0.78, 7.02, 2.07, 1.82, 8.16, repro,
2002-04-01,-0.69, -1.20, 9.82, 2.12, 1.99, 8.38, repro,
2002-04-02,-0.88, -0.61, 13.32, 2.10, 1.89, 8.33, repro,
2002-04-03,-1.25, -0.41, 7.47, 2.30, 2.06, 9.16, repro,
2002-04-04,-0.37, -1.03, 1.53, 2.05, 1.83, 8.12, repro,
2002-04-05,-0.47, -1.55, 1.70, 2.18, 1.91, 8.40, repro,
2002-04-06,-1.26, -0.11, 10.80, 2.14, 1.93, 8.37, repro,
2002-04-07,-0.72, -2.03, 18.84, 2.15, 1.91, 8.46, repro,
2002-04-08,-0.68, -1.17, 9.58, 2.15, 1.98, 8.44, repro,
2002-04-09,-0.50, -0.66, 3.85, 2.20, 2.06, 8.53, repro,
2002-04-10,-0.48, 0.15, 6.68, 2.11, 1.91, 8.37, repro,
2002-04-11,1.16, -1.35, 8.42, 2.23, 2.03, 8.77, repro,
2002-04-12,1.40, -1.26, 8.29, 2.33, 2.06, 9.23, repro,
2002-04-13,-0.35, -1.56, 7.01, 2.11, 1.91, 8.31, repro,
2002-04-14,0.33, -0.09, 15.93, 2.38, 2.10, 9.50, repro,
2002-04-15,0.29, -2.41, 26.78, 2.10, 1.93, 8.45, repro,
2002-04-16,0.77, -0.79, 16.82, 2.30, 2.17, 9.25, repro,
2002-04-17,0.79, -0.89, 21.16, 2.24, 2.15, 9.02, repro,
2002-04-18,-0.26, -0.63, 11.41, 2.10, 1.89, 8.36, repro,
2002-04-19,2.45, -1.41, 9.60, 3.19, 2.92, 14.48, repro,
2002-04-20,-0.17, -0.39, 8.10, 2.08, 1.96, 8.46, repro,
2002-04-21,0.81, 0.36, 10.64, 2.53, 2.34, 10.10, repro,
2002-04-22,0.58, 0.42, 15.70, 2.01, 1.84, 8.11, repro,
2002-04-23,0.75, 0.15, 8.64, 2.06, 1.86, 8.41, repro,
2002-04-24,0.16, -1.76, 2.02, 2.03, 1.78, 8.08, repro,
2002-04-25,-0.12, -2.17, 7.45, 2.08, 1.89, 8.40, repro,
2002-04-26,0.46, -1.19, 3.07, 3.15, 2.85, 13.48, repro,
2002-04-27,1.44, -0.18, 11.29, 1.98, 1.73, 7.78, repro,
2002-04-28,0.15, -0.17, 9.48, 1.99, 1.73, 7.83, repro,
2002-04-29,0.11, -0.56, 3.90, 2.04, 1.78, 8.03, repro,
2002-04-30,-0.19, 0.58, 13.26, 3.47, 3.11, 14.42, repro,
2002-05-01,0.45, -0.27, 9.61, 2.04, 1.76, 8.14, repro,
2002-05-02,0.67, -0.25, 12.85, 2.04, 1.83, 8.14, repro,
2002-05-03,-0.01, -0.93, 15.19, 2.03, 1.82, 8.08, repro,
2002-05-04,-0.44, -0.67, 9.16, 1.97, 1.72, 7.82, repro,
2002-05-05,-0.15, -1.16, 2.99, 2.00, 1.72, 7.89, repro,
2002-05-06,-0.32, -1.37, 8.72, 2.08, 1.82, 8.13, repro,
2002-05-07,1.00, -1.59, 7.00, 2.09, 1.85, 8.23, repro,
2002-05-08,0.41, -0.86, 17.62, 2.00, 1.72, 7.87, repro,
2002-05-09,0.72, -1.66, 9.14, 1.97, 1.72, 7.85, repro,
2002-05-10,-0.35, -2.85, 11.59, 1.97, 1.72, 7.81, repro,
2002-05-11,-0.89, -2.33, 11.16, 1.98, 1.71, 7.77, repro,
2002-05-12,1.19, -1.28, 6.64, 2.02, 1.77, 7.96, repro,
2002-05-13,0.19, -0.59, 2.99, 2.10, 1.80, 8.33, repro,
2002-05-14,-0.32, -1.23, 15.46, 1.98, 1.71, 7.72, repro,
2002-05-15,0.25, -3.02, 18.95, 2.03, 1.76, 7.97, repro,
2002-05-16,0.37, -1.29, 18.97, 2.00, 1.72, 7.84, repro,
2002-05-17,0.50, -0.42, 9.85, 2.08, 1.77, 8.26, repro,
2002-05-18,1.31, -0.89, 12.99, 2.11, 1.81, 8.32, repro,
2002-05-19,-0.58, -0.98, 19.59, 2.01, 1.73, 7.82, repro,
2002-05-20,-1.30, 0.79, 19.26, 2.05, 1.77, 8.01, repro,
2002-05-21,-0.30, -2.10, 12.08, 2.02, 1.73, 7.88, repro,
2002-05-22,-0.65, -1.93, 13.62, 2.11, 1.76, 8.25, repro,
2002-05-23,0.58, -1.67, 12.10, 2.04, 1.77, 8.01, repro,
2002-05-24,0.08, -1.87, 16.96, 2.04, 1.79, 8.05, repro,
2002-05-25,-0.21, -1.09, 10.28, 2.09, 1.90, 8.28, repro,
2002-05-26,-0.09, -0.60, 13.90, 2.05, 1.82, 8.21, repro,
2002-05-27,-0.32, -1.49, 20.92, 2.08, 1.85, 8.21, repro,
2002-05-28,-0.15, -1.63, 22.57, 2.10, 1.80, 8.34, repro,
2002-05-29,-1.20, -1.47, 25.08, 2.06, 1.75, 8.14, repro,
2002-05-30,0.40, -0.73, 16.78, 2.13, 1.82, 8.41, repro,
2002-05-31,0.63, -1.52, 19.76, 2.23, 1.96, 8.67, repro,
2002-06-01,1.06, -1.38, 18.43, 2.18, 1.87, 8.48, repro,
2002-06-02,-0.47, -3.41, 35.53, 2.12, 1.82, 8.45, repro,
2002-06-03,-0.33, -2.19, 23.06, 2.10, 1.79, 8.32, repro,
2002-06-04,-0.85, -1.46, 23.76, 2.06, 1.83, 8.12, repro,
2002-06-05,-0.41, -1.61, 14.90, 2.05, 1.76, 7.99, repro,
2002-06-06,1.35, -1.93, 20.89, 2.11, 1.79, 8.05, repro,
2002-06-07,0.58, -2.09, 21.42, 2.11, 1.87, 8.22, repro,
2002-06-08,-0.90, -1.65, 21.45, 2.08, 1.81, 8.04, repro,
2002-06-09,-1.09, -2.68, 18.51, 2.12, 1.85, 8.09, repro,
2002-06-10,-1.05, -2.85, 15.03, 2.02, 1.77, 7.87, repro,
2002-06-11,-1.13, -2.16, 15.33, 2.03, 1.78, 7.94, repro,
2002-06-12,0.04, -2.82, 23.11, 2.06, 1.84, 8.13, repro,
2002-06-13,0.13, -2.71, 21.33, 2.15, 1.97, 8.39, repro,
2002-06-14,-1.07, -2.44, 21.17, 2.12, 1.96, 8.32, repro,
2002-06-15,-1.15, -1.06, 20.23, 2.08, 1.84, 7.99, repro,
2002-06-16,-0.46, -1.76, 14.48, 2.01, 1.78, 7.93, repro,
2002-06-17,0.73, -2.22, 27.19, 2.04, 1.79, 8.01, repro,
2002-06-18,1.15, -1.50, 11.33, 2.03, 1.79, 7.93, repro,
2002-06-19,-0.22, -1.78, 22.45, 2.04, 1.83, 8.00, repro,
2002-06-20,-0.51, -1.29, 17.50, 2.02, 1.76, 7.83, repro,
2002-06-21,-3.14, -6.10, 29.81, 2.62, 2.34, 10.60, repro,
2002-06-22,-0.40, -2.42, 15.54, 2.02, 1.78, 7.96, repro,
2002-06-23,-0.07, -2.47, 16.15, 1.99, 1.70, 7.77, repro,
2002-06-24,0.23, -0.42, 14.33, 2.00, 1.70, 7.72, repro,
2002-06-25,0.95, -1.11, 20.76, 2.01, 1.70, 7.75, repro,
2002-06-26,0.73, -1.80, 20.62, 2.10, 1.94, 8.48, repro,
2002-06-27,-0.82, -0.28, 16.08, 2.11, 1.99, 8.62, repro,
2002-06-28,0.64, -2.60, 17.15, 2.10, 1.90, 8.51, repro,
2002-06-29,1.02, -0.80, 19.72, 2.05, 1.80, 7.94, repro,
2002-06-30,0.73, -2.71, 18.25, 2.08, 1.85, 8.07, repro,
2002-07-01,0.95, -1.18, 18.28, 2.03, 1.81, 8.04, repro,
2002-07-02,-2.27, -2.38, 17.56, 2.09, 1.87, 8.09, repro,
2002-07-03,-0.45, -2.77, 28.00, 2.06, 1.85, 8.07, repro,
2002-07-04,0.52, -1.74, 16.29, 2.06, 1.84, 8.05, repro,
2002-07-05,-1.14, -1.38, 19.72, 2.03, 1.77, 7.85, repro,
2002-07-06,-0.32, -1.93, 15.77, 1.99, 1.70, 7.73, repro,
2002-07-07,-0.42, -1.37, 20.80, 1.99, 1.70, 7.71, repro,
2002-07-08,-0.59, -1.95, 16.19, 1.99, 1.72, 7.81, repro,
2002-07-09,-0.15, -0.82, 13.54, 2.09, 1.88, 8.28, repro,
2002-07-10,-0.10, -0.13, 14.71, 2.05, 1.75, 7.98, repro,
2002-07-11,-0.69, -0.31, 15.18, 2.02, 1.72, 7.87, repro,
2002-07-12,-0.58, 0.76, 15.52, 2.06, 1.72, 7.99, repro,
2002-07-13,-1.74, -1.44, 8.48, 2.00, 1.72, 7.83, repro,
2002-07-14,-2.16, -2.25, 14.35, 2.01, 1.71, 7.82, repro,
2002-07-15,1.56, -0.81, 20.27, 2.13, 1.93, 8.53, repro,
2002-07-16,-2.18, 0.61, 20.67, 2.11, 1.78, 8.18, repro,
2002-07-17,-0.91, 0.58, 19.85, 2.04, 1.76, 7.92, repro,
2002-07-18,-1.30, 0.23, 18.07, 2.30, 1.88, 8.62, repro,
2002-07-19,-1.62, 0.09, 8.09, 2.10, 1.80, 8.16, repro,
2002-07-20,-0.07, 1.27, 18.47, 2.09, 1.76, 7.99, repro,
2002-07-21,0.12, -0.46, 14.41, 2.04, 1.76, 7.95, repro,
2002-07-22,0.15, -1.01, 4.53, 2.00, 1.70, 7.73, repro,
2002-07-23,0.63, -0.01, 10.65, 2.05, 1.74, 7.87, repro,
2002-07-24,-2.17, -2.17, 18.71, 2.05, 1.79, 7.93, repro,
2002-07-25,-1.09, 0.55, 7.46, 2.03, 1.71, 7.87, repro,
2002-07-26,1.50, -0.07, 12.41, 2.06, 1.76, 7.94, repro,
2002-07-27,-0.10, 0.76, 16.06, 2.19, 1.81, 8.34, repro,
2002-07-28,-0.75, -0.17, 13.31, 2.15, 1.81, 8.20, repro,
2002-07-29,0.19, 0.80, 8.72, 2.21, 1.87, 8.40, repro,
2002-07-30,0.30, -1.04, 8.76, 2.21, 1.88, 8.44, repro,
2002-07-31,1.05, -0.26, 5.68, 2.24, 1.86, 8.66, repro,
2002-08-01,1.33, -0.67, 8.69, 2.13, 1.77, 8.16, repro,
2002-08-02,-0.80, -0.72, 9.02, 2.09, 1.80, 8.03, repro,
2002-08-03,-0.82, 0.60, 12.43, 2.06, 1.71, 7.89, repro,
2002-08-04,0.24, 0.25, 4.50, 2.62, 2.37, 10.37, repro,
2002-08-05,-0.27, 1.23, 12.07, 2.04, 1.72, 7.90, repro,
2002-08-06,-0.11, 0.89, 5.63, 2.01, 1.71, 7.77, repro,
2002-08-07,0.73, -0.55, 5.35, 2.14, 1.82, 8.20, repro,
2002-08-08,-1.02, -0.40, 8.92, 2.03, 1.75, 7.84, repro,
2002-08-09,-0.36, -0.49, 9.42, 2.22, 1.89, 8.52, repro,
2002-08-10,-0.23, 0.17, 10.67, 2.13, 1.80, 8.15, repro,
2002-08-11,-0.34, -1.05, 6.09, 2.15, 1.84, 8.26, repro,
2002-08-12,1.60, -1.73, 11.68, 2.23, 1.96, 8.58, repro,
2002-08-13,0.56, -0.03, 9.27, 2.23, 1.96, 8.63, repro,
2002-08-14,0.22, 1.18, 4.34, 2.09, 1.76, 8.08, repro,
2002-08-15,-1.69, 1.00, 6.98, 2.14, 1.87, 8.23, repro,
2002-08-16,0.25, 0.07, 15.26, 2.15, 1.87, 8.38, repro,
2002-08-17,0.31, -0.65, 20.35, 2.07, 1.85, 8.11, repro,
2002-08-18,-0.82, -0.18, 10.20, 2.04, 1.83, 8.02, repro,
2002-08-19,-0.46, 0.52, 7.86, 2.04, 1.77, 7.97, repro,
2002-08-20,0.73, 0.35, 11.19, 2.01, 1.77, 7.96, repro,
2002-08-21,-1.22, 0.19, 8.46, 2.03, 1.78, 8.01, repro,
2002-08-22,0.26, 1.71, 7.01, 2.00, 1.73, 7.94, repro,
2002-08-23,-0.69, 0.94, 11.31, 2.00, 1.76, 7.95, repro,
2002-08-24,-0.70, 1.13, 10.61, 2.00, 1.77, 7.97, repro,
2002-08-25,-0.40, 0.51, 9.45, 2.01, 1.76, 7.94, repro,
2002-08-26,0.16, 0.16, 16.23, 2.00, 1.76, 7.88, repro,
2002-08-27,-0.93, 0.31, 13.41, 2.02, 1.78, 7.96, repro,
2002-08-28,-1.49, 0.94, 13.33, 2.00, 1.78, 7.96, repro,
2002-08-29,-0.61, -0.19, 12.33, 1.98, 1.70, 7.74, repro,
2002-08-30,-0.02, 0.67, 22.76, 2.07, 1.75, 8.09, repro,
2002-08-31,-1.49, -0.00, 8.04, 2.25, 2.04, 8.64, repro,
2002-09-01,-0.29, -1.68, 8.76, 1.98, 1.70, 7.78, repro,
2002-09-02,-1.35, 0.82, 12.06, 1.98, 1.71, 7.84, repro,
2002-09-03,1.36, 1.75, 9.65, 2.06, 1.73, 8.06, repro,
2002-09-04,0.07, 0.56, 15.45, 2.08, 1.74, 8.12, repro,
2002-09-05,-1.24, -0.88, 18.09, 1.99, 1.71, 7.86, repro,
2002-09-06,-1.20, -0.44, 11.30, 2.08, 1.73, 8.10, repro,
2002-09-07,-0.31, -0.20, 10.44, 2.06, 1.81, 8.15, repro,
2002-09-08,1.54, -1.41, 6.29, 2.06, 1.87, 8.17, repro,
2002-09-09,0.22, -0.53, 16.13, 2.05, 1.86, 8.05, repro,
2002-09-10,1.91, 0.70, 20.67, 2.04, 1.82, 8.29, repro,
2002-09-11,1.19, -0.05, 5.85, 1.98, 1.72, 7.82, repro,
2002-09-12,0.35, 0.00, 15.75, 1.98, 1.71, 7.81, repro,
2002-09-13,0.07, 0.87, 14.51, 2.01, 1.78, 7.87, repro,
2002-09-14,-1.45, -0.07, 18.58, 2.00, 1.72, 7.82, repro,
2002-09-15,-0.51, 0.42, 17.67, 2.09, 1.89, 8.20, repro,
2002-09-16,-0.41, 0.82, 21.02, 2.01, 1.79, 7.93, repro,
2002-09-17,0.11, -0.45, 26.12, 2.01, 1.76, 7.94, repro,
2002-09-18,0.18, -0.64, 17.21, 2.02, 1.79, 8.03, repro,
2002-09-19,2.78, 0.99, 23.20, 3.87, 3.42, 15.92, repro,
2002-09-20,-0.21, 0.89, 18.68, 2.02, 1.79, 7.90, repro,
2002-09-21,0.04, -0.34, 18.36, 2.15, 1.92, 8.45, repro,
2002-09-22,1.20, -1.30, 22.82, 2.09, 1.78, 8.18, repro,
2002-09-23,0.44, -0.60, 15.81, 2.09, 1.78, 8.03, repro,
2002-09-24,0.36, 0.23, 25.87, 2.17, 1.90, 8.47, repro,
2002-09-25,0.28, 0.26, 13.31, 2.13, 1.87, 8.18, repro,
2002-09-26,0.43, -0.25, 25.03, 2.14, 1.83, 8.30, repro,
2002-09-27,1.48, 0.86, 23.36, 2.13, 1.89, 8.34, repro,
2002-09-28,-0.58, -1.47, 14.23, 2.08, 1.84, 8.11, repro,
2002-09-29,1.43, -1.34, 25.77, 2.10, 1.89, 8.25, repro,
2002-09-30,0.23, 0.58, 24.30, 2.22, 1.96, 8.63, repro,
2002-10-01,-0.75, 0.70, 12.00, 2.12, 1.86, 8.22, repro,
2002-10-02,1.17, 1.93, 16.14, 2.15, 1.81, 8.30, repro,
2002-10-03,0.26, 0.31, 18.51, 2.16, 1.93, 8.33, repro,
2002-10-04,0.74, -0.08, 23.76, 2.17, 1.90, 8.35, repro,
2002-10-05,-0.61, -0.86, 22.48, 2.16, 1.91, 8.35, repro,
2002-10-06,1.83, 0.09, 16.52, 2.23, 1.96, 8.63, repro,
2002-10-07,-0.12, 0.94, 18.86, 2.28, 1.97, 8.92, repro,
2002-10-08,0.90, -0.22, 12.71, 2.21, 2.00, 8.69, repro,
2002-10-09,0.87, 0.68, 14.24, 2.21, 1.99, 8.69, repro,
2002-10-10,0.82, 0.06, 18.23, 2.24, 1.97, 8.64, repro,
2002-10-11,0.02, -0.12, 21.54, 2.26, 2.10, 8.84, repro,
2002-10-12,0.11, 0.69, 12.48, 2.16, 1.99, 8.46, repro,
2002-10-13,0.92, 0.31, 11.98, 2.30, 2.01, 9.01, repro,
2002-10-14,0.48, 0.51, 15.71, 2.35, 1.99, 9.06, repro,
2002-10-15,0.21, -0.73, 15.71, 2.32, 2.05, 9.03, repro,
2002-10-16,1.81, -2.39, 31.59, 2.36, 2.03, 9.01, repro,
2002-10-17,-0.97, 1.41, 26.69, 2.31, 1.97, 8.79, repro,
2002-10-18,-0.46, 0.86, 25.44, 2.28, 1.96, 8.82, repro,
2002-10-19,0.25, 0.15, 17.39, 2.19, 1.93, 8.37, repro,
2002-10-20,-0.41, 0.45, 19.69, 2.18, 1.97, 8.43, repro,
2002-10-21,0.79, 0.45, 18.98, 2.19, 1.97, 8.51, repro,
2002-10-22,-0.12, -0.35, 21.06, 2.27, 1.96, 8.77, repro,
2002-10-23,-0.26, 1.33, 20.32, 2.25, 1.93, 8.72, repro,
2002-10-24,-0.75, 0.48, 18.84, 2.18, 1.98, 8.53, repro,
2002-10-25,-0.03, -0.04, 14.78, 2.14, 1.90, 8.32, repro,
2002-10-26,0.43, 1.00, 18.18, 2.16, 1.92, 8.43, repro,
2002-10-27,-1.54, 1.69, 20.70, 2.19, 1.99, 8.68, repro,
2002-10-28,1.73, 0.64, 17.61, 2.16, 1.97, 8.44, repro,
2002-10-29,1.44, 0.05, 23.13, 2.10, 1.87, 8.16, repro,
2002-10-30,-1.19, 1.84, 18.72, 2.22, 1.91, 8.57, repro,
2002-10-31,-0.61, 1.81, 18.69, 2.09, 1.85, 8.15, repro,
2002-11-01,0.63, 2.94, 22.39, 2.10, 1.89, 8.26, repro,
2002-11-02,0.37, 1.81, 20.97, 2.14, 1.94, 8.32, repro,
2002-11-03,0.34, 0.39, 20.13, 2.09, 1.91, 8.27, repro,
2002-11-04,0.72, 1.34, 21.76, 2.13, 1.89, 8.38, repro,
2002-11-05,-0.31, 0.95, 20.45, 2.17, 1.93, 8.53, repro,
2002-11-06,0.41, 1.99, 15.70, 2.21, 1.95, 8.74, repro,
2002-11-07,0.04, 1.54, 20.43, 2.13, 1.99, 8.55, repro,
2002-11-08,-0.80, 0.41, 18.55, 2.13, 1.92, 8.38, repro,
2002-11-09,-3.70, 0.87, 26.42, 2.25, 1.95, 9.05, repro,
2002-11-10,-1.29, 0.29, 20.03, 2.14, 1.90, 8.54, repro,
2002-11-11,0.17, 0.54, 15.91, 2.21, 1.93, 8.97, repro,
2002-11-12,-0.24, 1.46, 10.13, 2.35, 2.08, 9.51, repro,
2002-11-13,1.89, 2.18, 23.92, 2.32, 1.99, 9.13, repro,
2002-11-14,1.84, 2.43, 20.87, 2.15, 1.84, 8.34, repro,
2002-11-15,0.90, 1.57, 14.68, 2.29, 1.96, 9.14, repro,
2002-11-16,0.07, 0.81, 7.66, 2.22, 1.94, 8.80, repro,
2002-11-17,0.31, 1.27, 14.42, 2.25, 2.12, 9.19, repro,
2002-11-18,1.20, 0.85, 13.78, 2.11, 1.80, 8.19, repro,
2002-11-19,2.04, 1.04, 12.55, 2.14, 1.90, 8.27, repro,
2002-11-20,0.05, 1.60, 2.86, 2.10, 1.89, 8.25, repro,
2002-11-21,0.93, 0.52, 10.33, 2.06, 1.82, 7.98, repro,
2002-11-22,0.86, 0.82, 9.09, 2.08, 1.90, 8.27, repro,
2002-11-23,0.58, -0.17, 8.21, 2.19, 1.81, 8.54, repro,
2002-11-24,1.08, 0.45, 9.72, 2.13, 1.78, 8.09, repro,
2002-11-25,1.02, 0.32, 12.29, 2.12, 1.83, 8.26, repro,
2002-11-26,0.91, -0.21, 10.03, 2.13, 1.80, 8.09, repro,
2002-11-27,0.05, 0.11, 14.17, 2.16, 1.84, 8.36, repro,
2002-11-28,2.38, 1.79, 16.18, 2.06, 1.87, 8.09, repro,
2002-11-29,0.94, 1.99, 18.21, 2.12, 1.81, 8.19, repro,
2002-11-30,0.58, 1.75, 8.57, 2.12, 1.85, 8.26, repro,
2002-12-01,1.81, 0.93, 7.97, 2.12, 1.84, 8.27, repro,
2002-12-02,1.04, 1.57, 8.41, 2.18, 1.93, 8.63, repro,
2002-12-03,0.52, 1.91, 5.62, 2.15, 1.90, 8.40, repro,
2002-12-04,1.03, 1.20, 9.48, 2.28, 2.17, 9.21, repro,
2002-12-05,1.75, 2.42, 9.73, 2.13, 1.93, 8.37, repro,
2002-12-06,0.99, 1.51, 14.22, 2.12, 1.91, 8.33, repro,
2002-12-07,0.96, 1.11, 5.94, 2.04, 1.82, 8.01, repro,
2002-12-08,0.41, 0.95, 10.81, 2.06, 1.87, 8.17, repro,
2002-12-09,1.37, 2.17, 11.24, 2.09, 1.85, 8.12, repro,
2002-12-10,0.41, 0.21, 13.79, 2.23, 2.07, 9.04, repro,
2002-12-11,0.87, 0.36, 14.19, 2.05, 1.87, 8.18, repro,
2002-12-12,0.64, 0.57, 10.62, 2.07, 1.94, 8.40, repro,
2002-12-13,0.76, 0.74, 9.20, 2.05, 1.87, 8.20, repro,
2002-12-14,1.59, 0.17, 6.42, 2.06, 1.84, 8.11, repro,
2002-12-15,-0.48, -0.02, 10.91, 2.08, 1.93, 8.28, repro,
2002-12-16,-1.59, -1.27, 14.50, 2.17, 1.97, 8.55, repro,
2002-12-17,-0.90, 2.07, 13.29, 2.15, 1.87, 8.30, repro,
2002-12-18,-0.03, 0.66, 7.76, 2.15, 1.88, 8.49, repro,
2002-12-19,0.77, 1.39, 1.77, 2.25, 1.93, 8.73, repro,
2002-12-20,1.70, -1.19, 11.18, 2.37, 2.16, 9.05, repro,
2002-12-21,0.82, -1.11, 5.66, 2.18, 1.95, 8.56, repro,
2002-12-22,0.63, 0.96, 8.26, 2.20, 1.96, 8.65, repro,
2002-12-23,0.27, 0.57, 7.58, 2.20, 2.01, 8.75, repro,
2002-12-24,1.89, -0.14, 18.40, 2.11, 1.92, 8.37, repro,
2002-12-25,1.43, 0.64, 2.58, 2.18, 1.99, 8.70, repro,
2002-12-26,0.83, 0.37, 6.12, 2.17, 1.93, 8.50, repro,
2002-12-27,1.15, 1.19, 3.63, 2.12, 2.02, 8.62, repro,
2002-12-28,0.85, 0.89, 3.99, 2.09, 1.95, 8.42, repro,
2002-12-29,0.60, -2.14, 10.02, 2.11, 1.96, 8.50, repro,
2002-12-30,0.01, -0.48, 9.46, 2.11, 1.90, 8.30, repro,
2002-12-31,-0.73, 0.10, 4.06, 2.11, 1.84, 8.24, repro,
2003-01-01,0.50, -0.56, 9.09, 2.18, 1.96, 8.45, repro,
2003-01-02,1.68, 0.31, 4.99, 2.23, 2.02, 8.87, repro,
2003-01-03,0.79, 0.07, 7.16, 2.17, 2.08, 8.79, repro,
2003-01-04,0.67, 0.57, 8.13, 2.21, 2.12, 8.86, repro,
2003-01-05,0.98, 0.66, 3.57, 2.13, 2.01, 8.51, repro,
2003-01-06,-0.36, -0.25, 6.97, 2.21, 2.19, 9.30, repro,
2003-01-07,0.53, -0.54, -1.48, 2.23, 2.17, 9.12, repro,
2003-01-08,2.01, 0.30, 2.27, 2.19, 2.10, 8.77, repro,
2003-01-09,0.64, -0.39, 10.72, 2.25, 2.04, 8.84, repro,
2003-01-10,-0.25, 0.22, 6.13, 2.22, 2.10, 8.82, repro,
2003-01-11,0.27, 0.38, 3.03, 2.10, 1.90, 8.12, repro,
2003-01-12,1.99, 0.73, 6.13, 2.65, 2.34, 10.46, repro,
2003-01-13,1.97, 0.41, 7.18, 2.11, 1.92, 8.16, repro,
2003-01-14,1.58, 0.31, 3.01, 2.10, 1.91, 8.11, repro,
2003-01-15,1.24, 0.79, 5.68, 2.09, 1.86, 7.99, repro,
2003-01-16,1.51, 0.67, 0.43, 2.26, 1.93, 8.43, repro,
2003-01-17,0.63, 0.59, 1.09, 2.18, 1.92, 8.26, repro,
2003-01-18,1.76, -0.09, 14.83, 2.05, 1.85, 7.92, repro,
2003-01-19,1.74, 0.25, 16.45, 2.15, 1.96, 8.21, repro,
2003-01-20,0.63, -0.66, 15.40, 2.08, 1.86, 8.06, repro,
2003-01-21,1.51, -2.04, 7.82, 2.10, 1.87, 8.06, repro,
2003-01-22,1.29, 0.73, 11.16, 2.07, 1.84, 7.95, repro,
2003-01-23,1.21, 0.42, 13.50, 2.33, 1.99, 9.15, repro,
2003-01-24,1.62, -0.21, 7.97, 2.12, 1.82, 8.17, repro,
2003-01-25,1.24, -0.69, 3.03, 2.21, 2.09, 8.46, repro,
2003-01-26,0.46, -0.05, 4.91, 2.12, 1.92, 8.24, repro,
2003-01-27,0.54, 0.55, 10.63, 2.30, 2.00, 8.87, repro,
2003-01-28,0.67, 0.07, 14.75, 2.32, 2.26, 9.03, repro,
2003-01-29,1.50, 0.46, 16.65, 2.34, 2.00, 9.11, repro,
2003-01-30,0.81, 0.35, 13.92, 2.36, 1.98, 9.03, repro,
2003-01-31,1.33, -0.87, 5.95, 2.35, 2.10, 9.30, repro,
2003-02-01,0.51, 0.95, 23.54, 2.31, 2.07, 9.07, repro,
2003-02-02,1.26, 1.18, 17.86, 2.19, 1.93, 8.41, repro,
2003-02-03,0.99, 0.77, 11.42, 2.32, 1.99, 9.06, repro,
2003-02-04,1.09, 1.68, 20.91, 2.35, 2.14, 9.13, repro,
2003-02-05,-0.99, 0.27, 18.86, 2.40, 2.09, 9.52, repro,
2003-02-06,0.46, 0.31, 11.96, 2.67, 2.24, 10.04, repro,
2003-02-07,0.95, 1.34, 16.38, 2.76, 2.38, 10.48, repro,
2003-02-08,0.85, 1.70, 16.90, 2.33, 2.21, 8.92, repro,
2003-02-09,1.39, 1.23, 14.90, 2.66, 2.37, 9.90, repro,
2003-02-10,0.59, 1.20, 18.09, 2.58, 2.21, 9.45, repro,
2003-02-11,-0.15, 1.43, 9.92, 2.23, 2.02, 8.56, repro,
2003-02-12,1.11, 2.96, 8.54, 2.09, 1.90, 8.16, repro,
2003-02-13,-0.55, 1.19, 16.17, 2.21, 2.02, 8.44, repro,
2003-02-14,0.52, 0.57, 8.10, 4.70, 4.59, 18.27, repro,
2003-02-15,-0.35, 0.52, 12.43, 3.00, 2.74, 12.39, repro,
2003-02-16,-1.39, 1.25, 16.63, 2.28, 2.07, 8.99, repro,
2003-02-17,0.73, 2.83, 19.53, 2.44, 2.20, 9.84, repro,
2003-02-18,-1.08, -0.42, 16.26, 2.33, 2.11, 9.36, repro,
2003-02-19,0.28, 0.87, 12.33, 2.09, 1.88, 8.11, repro,
2003-02-20,1.13, 0.58, 0.27, 2.03, 1.78, 7.89, repro,
2003-02-21,-0.60, -0.07, 18.69, 2.06, 1.83, 7.89, repro,
2003-02-22,-0.00, 0.57, 21.32, 2.03, 1.80, 7.83, repro,
2003-02-23,0.30, 0.58, 12.64, 2.05, 1.79, 7.89, repro,
2003-02-24,-0.69, 0.47, 13.20, 2.04, 1.81, 7.89, repro,
2003-02-25,-1.05, 0.26, 13.54, 2.05, 1.80, 8.02, repro,
2003-02-26,0.27, 1.94, 16.07, 2.01, 1.75, 7.77, repro,
2003-02-27,0.37, 1.30, 9.89, 2.11, 1.83, 8.27, repro,
2003-02-28,0.73, 0.60, 10.97, 2.02, 1.76, 7.83, repro,
2003-03-01,-0.26, 1.08, 14.23, 2.10, 1.82, 7.94, repro,
2003-03-02,-0.55, 1.10, 12.03, 2.08, 1.82, 7.92, repro,
2003-03-03,0.02, 1.71, 17.85, 2.05, 1.81, 7.92, repro,
2003-03-04,0.46, 1.02, 21.68, 2.03, 1.79, 7.97, repro,
2003-03-05,1.65, 0.96, 18.00, 2.06, 1.78, 7.86, repro,
2003-03-06,0.81, 0.54, 14.34, 2.07, 1.84, 7.99, repro,
2003-03-07,0.22, 1.24, 12.07, 2.13, 1.82, 8.21, repro,
2003-03-08,0.60, 1.53, 13.46, 2.13, 1.82, 8.21, repro,
2003-03-09,0.72, 1.85, 8.12, 2.08, 1.85, 8.02, repro,
2003-03-10,0.74, 0.85, 16.03, 2.05, 1.76, 7.81, repro,
2003-03-11,1.58, 1.86, 15.43, 2.08, 1.77, 7.85, repro,
2003-03-12,0.26, 1.47, 11.35, 2.17, 1.89, 8.19, repro,
2003-03-13,0.61, 0.60, 17.18, 2.19, 1.91, 8.23, repro,